Location: Aiyede
(8.4833°N, 4.4500°E)
Time: 13:44:29
(UTC+00:00)

Envisat - Pass Details

Date: 27 November 2020
Orbit: 764 x 766 km, 98.1° (Epoch: 18 January)

Event Time Altitude Azimuth Distance (km) Brightness Sun altitude
Rises 04:37:42 0° 30° (NNE) 3,219 6.4 -15.2°
Reaches altitude 10° 04:40:16 10° 41° (NE) 2,294 5.7 -14.6°
Maximum altitude 04:44:38 29° 101° (E) 1,364 5.2 -13.5°
Drops below altitude 10° 04:48:59 10° 160° (SSE) 2,295 6.0 -12.5°
Sets 04:51:32 0° 171° (S) 3,221 6.6 -11.9°
